TimeMDT,TemperatureF,Dew PointF,Humidity,Sea Level PressureIn,VisibilityMPH,Wind Direction,Wind SpeedMPH,Gust SpeedMPH,PrecipitationIn,Events,Conditions,WindDirDegrees,DateUTC
12:55 AM,27.0,24.1,89,30.19,10.0,Calm,Calm,-,N/A,,Overcast,0,2012-10-28 06:55:00
1:55 AM,26.1,24.1,92,30.18,10.0,Calm,Calm,-,N/A,,Mostly Cloudy,0,2012-10-28 07:55:00
2:55 AM,24.1,21.9,91,30.17,8.0,Calm,Calm,-,N/A,,Clear,0,2012-10-28 08:55:00
3:55 AM,24.1,23.0,96,30.16,7.0,East,3.5,-,N/A,,Clear,80,2012-10-28 09:55:00
4:55 AM,26.1,24.1,92,30.17,7.0,East,4.6,-,N/A,,Clear,90,2012-10-28 10:55:00
5:55 AM,26.1,24.1,92,30.17,7.0,East,8.1,-,N/A,,Clear,100,2012-10-28 11:55:00
6:35 AM,26.6,24.8,93,30.10,5.0,East,8.1,-,N/A,,Mostly Cloudy,100,2012-10-28 12:35:00
6:43 AM,26.6,24.8,93,30.10,5.0,East,8.1,-,N/A,,Mostly Cloudy,100,2012-10-28 12:43:00
6:55 AM,26.1,24.1,92,30.17,5.0,East,6.9,-,N/A,,Overcast,90,2012-10-28 12:55:00
7:24 AM,26.6,24.8,93,30.11,1.5,East,10.4,-,N/A,,Overcast,100,2012-10-28 13:24:00
7:34 AM,26.6,24.8,93,30.11,0.5,East,9.2,-,N/A,Fog,Light Freezing Fog,90,2012-10-28 13:34:00
7:55 AM,25.0,25.0,100,30.17,0.2,East,9.2,-,N/A,Fog,Light Freezing Fog,90,2012-10-28 13:55:00
8:55 AM,26.1,25.0,96,30.17,0.2,East,9.2,-,N/A,Fog,Light Freezing Fog,80,2012-10-28 14:55:00
9:55 AM,28.0,27.0,96,30.16,0.5,East,8.1,-,N/A,Fog,Light Freezing Fog,90,2012-10-28 15:55:00
10:22 AM,28.4,28.4,100,30.09,1.0,East,8.1,-,N/A,,Overcast,100,2012-10-28 16:22:00
10:41 AM,30.2,28.4,93,30.07,2.5,East,10.4,-,N/A,,Overcast,100,2012-10-28 16:41:00
10:55 AM,30.0,30.0,100,30.14,2.5,East,9.2,-,N/A,,Overcast,90,2012-10-28 16:55:00
11:02 AM,30.2,30.2,100,30.07,3.0,East,9.2,-,N/A,,Overcast,100,2012-10-28 17:02:00
11:55 AM,33.1,32.0,96,30.12,10.0,East,8.1,-,N/A,,Overcast,80,2012-10-28 17:55:00
12:05 PM,33.8,32.0,93,30.05,10.0,East,6.9,-,N/A,,Overcast,100,2012-10-28 18:05:00
12:32 PM,37.4,32.0,81,30.03,10.0,East,9.2,-,N/A,,Scattered Clouds,100,2012-10-28 18:32:00
12:55 PM,39.9,32.0,73,30.06,10.0,ESE,10.4,-,N/A,,Partly Cloudy,110,2012-10-28 18:55:00
1:55 PM,45.0,33.1,63,30.02,10.0,ESE,10.4,-,N/A,,Clear,120,2012-10-28 19:55:00
2:55 PM,46.9,35.1,63,30.00,10.0,East,10.4,-,N/A,,Clear,100,2012-10-28 20:55:00
3:55 PM,48.9,36.0,61,30.01,10.0,ESE,8.1,-,N/A,,Partly Cloudy,110,2012-10-28 21:55:00
4:55 PM,48.9,36.0,61,29.99,10.0,East,10.4,-,N/A,,Overcast,90,2012-10-28 22:55:00
5:55 PM,46.9,37.0,68,29.99,10.0,East,9.2,-,N/A,,Overcast,100,2012-10-28 23:55:00
6:55 PM,45.0,37.0,74,30.00,10.0,ENE,10.4,-,N/A,,Mostly Cloudy,70,2012-10-29 00:55:00
7:55 PM,43.0,36.0,76,30.01,10.0,East,8.1,-,N/A,,Overcast,80,2012-10-29 01:55:00
8:55 PM,42.1,35.1,76,30.02,10.0,NE,4.6,-,N/A,,Mostly Cloudy,50,2012-10-29 02:55:00
9:55 PM,42.1,35.1,76,30.01,10.0,NE,5.8,-,N/A,,Overcast,50,2012-10-29 03:55:00
10:55 PM,39.9,35.1,83,30.01,10.0,Calm,Calm,-,N/A,,Overcast,0,2012-10-29 04:55:00
11:55 PM,39.9,35.1,83,30.00,10.0,West,3.5,-,N/A,,Overcast,270,2012-10-29 05:55:00